Location: Fernhill
(41.0167°S, 175.6333°E)
Time: 15:08:48
(UTC+00:00)

Meteor 2-6 Rocket - Pass Details

Date: 25 February 2026
Orbit: 804 x 913 km, 81.3° (Epoch: 7 March)

Event Time Altitude Azimuth Distance (km) Brightness Sun altitude
Exits shadow 08:09:34 16° 69° (ENE) 2,168 5.7 -12.1°
Maximum altitude 08:11:39 19° 95° (E) 2,008 5.7 -12.4°
Drops below altitude 10° 08:15:42 10° 138° (SE) 2,616 6.6 -13.1°
Sets 08:18:54 0° 155° (SSE) 3,576 7.5 -13.7°
